Regional Weather Roundup
Issued by NWS

Home | Current Version | Previous Version | Text Only | Print | Product List | Glossary Off
Versions: 1 2 3 4 5 6 7 8 9 10 11 12 13 14 15 16 17 18 19 20 21 22 23 24 25 26 27 28 29 30 31 32 33 34 35 36 37 38 39 40 41 42 43 44 45 46 47 48 49 50

000
ASUS43 KLOT 211209
RWRIL

ILLINOIS REGIONAL WEATHER ROUNDUP
NATIONAL WEATHER SERVICE CHICAGO/ROMEOVILLE IL
700 AM CDT FRI JUL 21 2017

NOTE: "FAIR" INDICATES FEW OR NO CLOUDS BELOW 12,000 FEET WITH NO
SIGNIFICANT WEATHER AND/OR OBSTRUCTIONS TO VISIBILITY.

* THESE STATIONS ARE NOT UNDER NWS QUALITY CONTROL. THEY ALSO MAY NOT
  REPORT WEATHER SUCH AS PRECIPITATION OR FOG.

ILZ001-002-007-009-015-016-024-211300-
NORTHWEST ILLINOIS

CITY           SKY/WX    TMP DP  RH WIND       PRES   REMARKS
MOLINE         LGT RAIN  73  69  87 E3        29.95F
6HR MIN TEMP:  72; 6HR MAX TEMP:  75; 6HR PCP:  0.34;

STERLING*      PTSUNNY   72  71  97 CALM      29.98R
SAVANNA*       CLOUDY    72  71  95 CALM      29.95F
$$

ILZ003-004-008-010-011-017-018-211300-
NORTH CENTRAL ILLINOIS

CITY           SKY/WX    TMP DP  RH WIND       PRES   REMARKS
ROCKFORD       CLOUDY    76  72  87 SW8       29.98R FOG
6HR MIN TEMP:  75; 6HR MAX TEMP:  77; 6HR PCP: TRACE;

FREEPORT*      CLOUDY    72  71  99 S3        29.98S
ROCHELLE*      PTSUNNY   70  70 100 SE5       29.98F FOG
DE KALB*       PTSUNNY   71  70  96 SE5       29.98F
PERU*          LGT RAIN  71  70  96 W6        29.98S
$$

ILZ005-006-012>014-019>023-211300-
NORTHEAST ILLINOIS

CITY           SKY/WX    TMP DP  RH WIND       PRES   REMARKS
CHICAGO-OHARE  CLOUDY    75  68  78 NE9       29.96F
6HR MIN TEMP:  73; 6HR MAX TEMP:  77;

CHICAGO-MIDWAY CLOUDY    77  71  82 NE7       29.96F
6HR MIN TEMP:  75; 6HR MAX TEMP:  78;

AURORA         CLOUDY    72  71  97 SE5       29.98S
6HR MIN TEMP:  70; 6HR MAX TEMP:  75; 6HR PCP:  0.02;

LANSING*       CLOUDY    72  69  92 E5        29.98F
JOLIET*        CLOUDY    73  73  99 CALM      29.98S FOG
WAUKEGAN       CLOUDY    70  70 100 CALM      29.98F
6HR MIN TEMP:  67; 6HR MAX TEMP:  72;

DUPAGE AIRPORT CLOUDY    73  70  90 NE5       29.96F
6HR MIN TEMP:  70; 6HR MAX TEMP:  75;

WHEELING       PTSUNNY   74  73  97 CALM      29.98F
6HR MIN TEMP:  73; 6HR MAX TEMP:  75;

MORRIS*        FOG       72  71  97 NE5       29.96F VSB 1/4
ROMEOVILLE*    CLOUDY    72  71  98 CALM      29.98S FOG
NORTHERLY ISL    N/A     74  69  85 NE3         N/A
$$

LMZ740>746-211300-
SOUTHERN LAKE MICHIGAN

STATION/POSITION SKY/WX   TEMP    WIND        PRES    VSBY  WAVE
                          AIR SEA DIR/SP/G                  HT/PER
                          (F)     (DEG/KT/KT) (MB)    (MI)  (FT/S)
SOUTHERN BUOY              72 70  330/  6/  8 1015.6          0
WILMETTE HARBOR            72 72   50/  8/ 10   N/A           0
HARRISON CRIB              76      10/  8/  8   N/A
BURNHAM HARBOR             74                   N/A
CALUMET HARBOR             74      40/  3/  4 1014.8F
BURNS HARBOR               73      20/  3/  3 1016.3S
MICHIGAN CITY              73      50/  3/  4   N/A
MICHIGAN CITY 6N           74 74   80/  6/  8   N/A           0
ST. JOSEPH                 73 74   CALM  /  2 1016.0          0
$$

ILZ025>027-034>036-040-047-049-050-058-095>099-211300-
WEST-CENTRAL ILLINOIS

CITY           SKY/WX    TMP DP  RH WIND       PRES   REMARKS
QUINCY         MOSUNNY   77  74  90 SE8       29.98R
GALESBURG*     CLOUDY    73  69  89 SE3       29.98S
MACOMB*        CLOUDY    75  72  88 SE3       30.00R
JACKSONVILLE*  MOSUNNY   76  74  93 CALM      29.99R
PITTSFIELD*    SUNNY     76  74  92 CALM      30.00S
$$

ILZ028>032-037-038-041>044-048-051>054-059>061-211300-
CENTRAL ILLINOIS

CITY           SKY/WX    TMP DP  RH WIND       PRES   REMARKS
PONTIAC        HVY RAIN  73  72  98 CALM      29.99F
BLOOMINGTON    CLOUDY    73  70  90 S7        30.03R
DECATUR        PTSUNNY   76  71  85 E10       30.02R
PEORIA         CLOUDY    76  72  87 SE6       29.98F
6HR MIN TEMP:  75; 6HR MAX TEMP:  83; 6HR PCP: TRACE;

LACON*         CLOUDY    72  72 100 CALM      29.97F
LINCOLN*       PTSUNNY   77  74  91 E5        29.99S
SPRINGFIELD    CLOUDY    79  77  94 N3        30.00R HX  83
6HR MIN TEMP:  76; 6HR MAX TEMP:  82;

TAYLORVILLE    CLOUDY    77  74  92 CALM      29.99R
6HR MIN TEMP:  73; 6HR MAX TEMP:  79;

$$

ILZ033-039-045-046-055>057-062-063-211300-
EAST-CENTRAL ILLINOIS

CITY           SKY/WX    TMP DP  RH WIND       PRES   REMARKS
CHAMPAIGN      PTSUNNY   73  69  87 SE6       30.02S
RANTOUL*       CLOUDY    73  72  95 S6        30.01R
MATTOON        MOSUNNY   78  76  93 E6        30.01R HX  81
PARIS*         PTSUNNY   74  71  89 SE3       30.02F
$$

ILZ079-100>102-211300-
SOUTHWEST ILLINOIS

CITY           SKY/WX    TMP DP  RH WIND       PRES   REMARKS
ALTON          MOSUNNY   75  75 100 W6        30.01R
BELLEVILLE     SUNNY     78  74  88 W5        30.00R
CAHOKIA*       MOSUNNY   81  73  76 CALM      29.99R HX  86
SPARTA*        MOSUNNY   78  75  90 SW3       30.01S HX  81
$$

ILZ064>066-069>071-074>076-080>082-084>086-088>090-092>094-211300-
SOUTH-CENTRAL ILLINOIS

CITY           SKY/WX    TMP DP  RH WIND       PRES   REMARKS
CARBONDALE     SUNNY     77  77 100 S3        30.01R
6HR MIN TEMP:  75; 6HR MAX TEMP:  78;

CAIRO*         SUNNY     78  76  95 CALM      30.02S HX  80
EFFINGHAM*     CLOUDY    77  77  99 N3        30.02R FOG
MARION         MOSUNNY   79  79 100 S6        30.01S HX  83
MT. VERNON     CLOUDY    77  76  96 CALM      30.01R
CENTRALIA*     MOSUNNY   78  77  96 CALM      30.00R HX  80
SALEM*         CLOUDY    78  75  91 CALM      30.00R FOG     HX  81
METROPOLIS*    SUNNY     77  76  95 CALM      30.03R FOG
$$

ILZ067-068-072-073-078-083-087-091-211300-
SOUTHEAST ILLINOIS

CITY           SKY/WX    TMP DP  RH WIND       PRES   REMARKS
LAWRENCEVILLE  CLOUDY    77  75  93 MISG      30.02R FOG
FLORA*         MOSUNNY   77  75  94 CALM      30.01R FOG
FAIRFIELD*     CLOUDY    75  75  99 CALM      30.00R FOG
HARRISBURG*    SUNNY     75  75  99 CALM      30.01S FOG
ROBINSON*      MOSUNNY   77  75  95 CALM      30.02R
CARMI*         CLOUDY    75  75  99 S3        30.00R FOG
$$

ABBREVIATIONS USED IN REMARKS
   TC - TEMPERATURE IN CELSIUS
  WCI - WIND CHILL INDEX
   HX - HEAT INDEX
  VSB - VISIBILITY
$$





USA.gov is the U.S. government's official web portal to all federal, state and local government web resources and services.